Flag for U.S.A. Weather past 2 weeks in Waterbury, Connecticut, U.S.A.

Now
75 °F

Scattered clouds.


Feels Like: 78 °F
Forecast: 55 / 78 °F
Wind: 7 mph from Northwest

Location: Oxford

Current Time: Aug 28, 2015 at 1:21:29 PM

Latest Report: Aug 28, 2015 at 12:52 PM


Visibility: 10 mi

Pressure: 30.21 "Hg

Humidity: 47%

Dew point: 54 °F

Location of WaterburyLocation

Historic Weather in Waterbury — Graph

°F

Waterbury temperature yesterday

Maximum temperature yesterday: 73 °F (at 12:50 PM)
Minimum temperature yesterday: 57 °F (at 2:15 AM)
Average temperature yesterday: 63 °F

Past Weeks' High & Low Weather Summary

 TemperatureHumidityPressure
High90 °F (Aug 17, 2:55 PM)83% (Aug 16, 4:55 AM)30.22 "Hg (Aug 16, 4:55 AM)
Low54 °F (Aug 28, 6:15 AM)44% (Aug 13, 2:50 PM)29.85 "Hg (Aug 25, 4:50 PM)
Average71 °F70%30.06 "Hg
* Reported Aug 13 11:50 AM — Aug 28 11:52 AM, Waterbury, Weather by CustomWeather, © 2015

Note: Actual official high and low records may vary slightly from our data, if they occured in-between our weather recording intervals... More about our weather records

Advertising

Waterbury weather history for previous 24 hours

 ConditionsComfort  
Time TempWeatherWind HumidityBarometerVisibility
11:52 AM
Fri, Aug 28
72 °FScattered clouds.5 mph50%30.22 "Hg10 mi
10:52 AM72 °FSunny.5 mph57%30.21 "Hg10 mi
7:52 AM59 °FSunny.7 mph72%30.19 "Hg10 mi
6:52 AM55 °FClear.6 mph72%30.17 "Hg10 mi
6:15 AM54 °FClear.6 mph77%30.17 "Hg10 mi
5:55 AM55 °FClear.6 mph77%30.17 "Hg10 mi
5:35 AM55 °FPassing clouds.3 mph72%30.16 "Hg10 mi
5:15 AM55 °FPassing clouds.6 mph72%30.15 "Hg10 mi
4:55 AM55 °FPassing clouds.5 mph72%30.16 "Hg10 mi
4:35 AM55 °FPassing clouds.No wind72%30.15 "Hg10 mi
4:15 AM57 °FClear.5 mph72%30.15 "Hg10 mi
3:55 AM55 °FClear.5 mph77%30.15 "Hg10 mi
3:35 AM55 °FClear.3 mph72%30.15 "Hg10 mi
3:15 AM55 °FClear.No wind72%30.15 "Hg10 mi
2:55 AM55 °FClear.No wind72%30.15 "Hg10 mi
2:35 AM55 °FClear.No wind77%30.15 "Hg10 mi
2:15 AM55 °FClear.No wind77%30.15 "Hg10 mi
1:55 AM57 °FClear.No wind72%30.15 "Hg10 mi
1:35 AM57 °FClear.No wind72%30.15 "Hg10 mi
1:15 AM57 °FClear.No wind72%30.15 "Hg10 mi
12:55 AM57 °FClear.No wind72%30.15 "Hg10 mi
11:55 PM
Thu, Aug 27
61 °FClear.5 mph72%30.14 "Hg10 mi
11:15 PM61 °FClear.6 mph72%30.14 "Hg10 mi
10:55 PM63 °FClear.5 mph68%30.13 "Hg10 mi
10:35 PM63 °FClear.5 mph68%30.13 "Hg10 mi
10:15 PM61 °FClear.3 mph72%30.13 "Hg10 mi
9:55 PM61 °FClear.3 mph72%30.12 "Hg10 mi
9:35 PM63 °FClear.7 mph68%30.12 "Hg10 mi
9:15 PM63 °FClear.7 mph68%30.12 "Hg10 mi
8:55 PM63 °FClear.No wind68%30.11 "Hg10 mi
7:50 PM66 °FPassing clouds.No wind60%30.08 "Hg10 mi
6:50 PM72 °FScattered clouds.6 mph53%30.08 "Hg10 mi
5:50 PM73 °FBroken clouds.6 mph50%30.07 "Hg10 mi
4:50 PM72 °FPartly sunny.6 mph57%30.07 "Hg10 mi
3:50 PM72 °FPartly sunny.6 mph53%30.07 "Hg10 mi
2:50 PM73 °FPartly sunny.7 mph50%30.07 "Hg10 mi
1:50 PM72 °FPartly sunny.8 mph53%30.07 "Hg10 mi
Weather by CustomWeather, © 2015

See weather overviewHow to use our weather pages